This is the latest recevied weather packets stored in our database for station/object K4OBI. If no packets are shown the sender has not sent any weather packets the latest 10 day(s).
| Time | Temp. | Humidity | Pressure | Rain* | Wind** | Luminosity | Snow |
|---|---|---|---|---|---|---|---|
| 1777574450 | 21.67° C | 49% | 1012.7 hPa | 0 mm | - | - | - |
| 1777574387 | 21.67° C | 49% | 1012.7 hPa | 0 mm | - | - | - |
| 1777574328 | 21.67° C | 47% | 1012.7 hPa | 0 mm | - | - | - |
| 1777574265 | 21.67° C | 47% | 1012.7 hPa | 0 mm | - | - | - |
| 1777574206 | 21.67° C | 48% | 1012.7 hPa | 0 mm | - | - | - |
| 1777574151 | 21.67° C | 48% | 1012.8 hPa | 0 mm | - | - | - |
| 1777574085 | 21.67° C | 46% | 1012.8 hPa | 0 mm | - | - | - |
| 1777574026 | 22.22° C | 48% | 1012.9 hPa | 0 mm | - | - | - |
| 1777573966 | 22.22° C | 50% | 1012.8 hPa | 0 mm | - | - | - |
| 1777573906 | 22.22° C | 52% | 1012.8 hPa | 0 mm | - | - | - |
| 1777573851 | 22.22° C | 48% | 1012.7 hPa | 0 mm | - | - | - |
| 1777573786 | 21.67° C | 50% | 1012.7 hPa | 0 mm | - | - | - |
| 1777573726 | 21.67° C | 52% | 1012.7 hPa | 0 mm | - | - | - |
| 1777573665 | 21.67° C | 48% | 1012.7 hPa | 0 mm | - | - | - |
| 1777573607 | 21.67° C | 47% | 1012.7 hPa | 0 mm | - | - | - |
| 1777573551 | 21.67° C | 50% | 1012.7 hPa | 0 mm | - | - | - |
| 1777573481 | 21.67° C | 46% | 1012.8 hPa | 0 mm | - | - | - |
| 1777573422 | 21.67° C | 48% | 1012.6 hPa | 0 mm | - | - | - |
| 1777573363 | 21.67° C | 48% | 1012.7 hPa | 0 mm | - | - | - |
| 1777573301 | 21.67° C | 47% | 1012.7 hPa | 0 mm | - | - | - |
| 1777573243 | 21.67° C | 48% | 1012.8 hPa | 0 mm | - | - | - |
| 1777573181 | 21.67° C | 47% | 1012.8 hPa | 0 mm | - | - | - |
| 1777573127 | 22.22° C | 48% | 1012.7 hPa | 0 mm | - | - | - |
| 1777573061 | 22.22° C | 46% | 1012.8 hPa | 0 mm | - | - | - |
| 1777573003 | 22.22° C | 48% | 1012.7 hPa | 0 mm | - | - | - |
* Rain latest hour (hover to see other rain measurements)
** Current wind speed in m/s (hover to see current wind gust speed)